Location: *
(46.0770°N, 1.6444°E)
Time: 23:46:15
(UTC+00:00)

SL-24 R/B - Pass Details

Date: 16 September 2019
Orbit: 625 x 1075 km, 98.1° (Epoch: 14 October)

Event Time Altitude Azimuth Distance (km) Brightness Sun altitude
Exits shadow 20:10:05 57° 144° (SE) 786 4.2 -21.7°
Maximum altitude 20:10:58 77° 74° (ENE) 693 4.1 -21.9°
Drops below altitude 10° 20:15:45 10° 349° (N) 2,216 7.4 -22.6°
Sets 20:18:09 0° 348° (NNW) 3,205 8.3 -23.0°
